User: anonymous   Login
Location: Hokitika
(42.7170°S, 170.9670°E)
Time: 10:09:31
(UTC+13:00)
Language:

Meteor 1-25 Rocket - Orbit

View from above orbital plane
View from above orbital plane
View from above satellite
View from above satellite

Ground track
Ground track

The orbit data is extracted from the following two-line orbital elements,

1  8846U 76043B   19290.31805329 -.00000019  00000-0 -18230-4 0  9998
2  8846  81.2220 202.7701 0038336 128.2745 232.1884 14.08557636231047
Epoch (UTC): 17 October 2019 07:37:59
Eccentricity: 0.0038336
inclination: 81.2220°
perigee height: 836 km
apogee height: 892 km
right ascension of ascending node: 202.7701°
argument of perigee: 128.2745°
revolutions per day: 14.08557636
mean anomaly at epoch: 232.1884°
orbit number at epoch: 23104

The dashed part of the orbit path shows where the satellite is in the earth's shadow,  

DLR